Tracking 18980 objects as of 19-Feb-2018
HD Live streaming from Space Station
objects crossing your sky now

FENGYUN 1C DEB

Track FENGYUN 1C DEB now!
10-day predictions


NORAD ID: 31327
Int'l Code: 1999-025BQF
Perigee: 555.0 km
Apogee: 804.2 km
Inclination: 99.0 °
Period: 98.2 minutes
Semi major axis: 7050 km
RCS: 0.0089 m2 (small)
Launch date: May 10, 1999
Source: People's Republic of China (PRC)
Launch site: Taiyaun Space Center, China (TSC)

Note: This is SATELLITE DEBRIS
aabbcc
Your satellite tracking list
Your tracking list is empty




NASA's NSSDC Master Catalog

Two Line Element Set (TLE):
1 31327U 99025BQF 18049.26170751  .00000526  00000-0  86039-4 0  9995
2 31327  99.0240  61.5346 0176708 282.6565  75.4931 14.66447351580463
Source of the keplerian elements: AFSPC